�������l�o���
Date,Time,MP-1(��Sv/h),MP-2(��Sv/h),MP-3(��Sv/h),MP-4(��Sv/h),MP-5(��Sv/h),MP-6(��Sv/h),MP-7(��Sv/h),����,����(m/s),���J
2015/03/22,00:00,0.539,0.332,0.561,0.516,0.556,0.253,0.224,��쐼,4.0,��
2015/03/22,00:10,0.540,0.333,0.560,0.521,0.554,0.254,0.224,��쐼,4.8,��
2015/03/22,00:20,0.540,0.334,0.559,0.520,0.553,0.253,0.223,��쐼,5.4,��
2015/03/22,00:30,0.538,0.332,0.565,0.520,0.552,0.253,0.225,��쐼,7.1,��
2015/03/22,00:40,0.540,0.332,0.560,0.519,0.555,0.254,0.225,��쐼,7.3,��
2015/03/22,00:50,0.541,0.333,0.561,0.519,0.555,0.252,0.224,��쐼,7.5,��
2015/03/22,01:00,0.538,0.331,0.562,0.520,0.553,0.253,0.224,��쐼,9.3,��
2015/03/22,01:10,0.537,0.332,0.562,0.520,0.556,0.251,0.225,��쐼,9.5,��
2015/03/22,01:20,0.539,0.332,0.560,0.518,0.557,0.253,0.224,��쐼,9.2,��
2015/03/22,01:30,0.540,0.333,0.561,0.519,0.552,0.251,0.224,��,10.0,��
2015/03/22,01:40,0.539,0.333,0.561,0.521,0.552,0.254,0.223,��,9.5,��
2015/03/22,01:50,0.540,0.331,0.562,0.519,0.556,0.253,0.224,��쐼,8.9,��
2015/03/22,02:00,0.540,0.333,0.560,0.517,0.553,0.252,0.225,��,8.3,��
2015/03/22,02:10,0.540,0.332,0.560,0.522,0.553,0.253,0.225,��,8.7,��
2015/03/22,02:20,0.540,0.333,0.562,0.522,0.555,0.253,0.224,��쐼,7.8,��
2015/03/22,02:30,0.538,0.333,0.560,0.520,0.554,0.253,0.224,��쐼,5.8,��
2015/03/22,02:40,0.541,0.332,0.559,0.519,0.555,0.253,0.224,��쐼,4.5,��
2015/03/22,02:50,0.540,0.332,0.564,0.521,0.552,0.253,0.225,��쐼,4.3,��
2015/03/22,03:00,0.539,0.332,0.563,0.520,0.554,0.254,0.225,�쐼,4.9,��
2015/03/22,03:10,0.541,0.333,0.561,0.518,0.556,0.254,0.224,��쐼,5.3,��
2015/03/22,03:20,0.540,0.333,0.562,0.520,0.551,0.253,0.224,��쐼,5.4,��
2015/03/22,03:30,0.540,0.332,0.561,0.520,0.553,0.252,0.224,��쐼,6.2,��
2015/03/22,03:40,0.540,0.331,0.559,0.519,0.556,0.253,0.224,��쐼,6.6,��
2015/03/22,03:50,0.540,0.331,0.559,0.519,0.556,0.253,0.224,��쐼,7.2,��
2015/03/22,04:00,0.539,0.332,0.561,0.520,0.553,0.253,0.224,��쐼,9.2,��
2015/03/22,04:10,0.538,0.331,0.562,0.519,0.554,0.253,0.223,��쐼,7.9,��
2015/03/22,04:20,0.541,0.331,0.560,0.518,0.554,0.253,0.223,��쐼,8.9,��
2015/03/22,04:30,0.538,0.331,0.562,0.519,0.554,0.253,0.224,��쐼,8.9,��
2015/03/22,04:40,0.537,0.332,0.562,0.520,0.554,0.253,0.226,��,6.3,��
2015/03/22,04:50,0.541,0.331,0.559,0.520,0.556,0.252,0.223,��쐼,7.4,��
2015/03/22,05:00,0.538,0.332,0.561,0.520,0.553,0.253,0.225,��쐼,5.9,��
2015/03/22,05:10,0.539,0.333,0.561,0.519,0.554,0.253,0.223,��쐼,6.4,��
2015/03/22,05:20,0.540,0.331,0.561,0.522,0.553,0.253,0.224,��쐼,5.5,��
2015/03/22,05:30,0.539,0.331,0.562,0.519,0.555,0.253,0.224,��쐼,4.6,��
2015/03/22,05:40,0.539,0.330,0.561,0.521,0.553,0.253,0.224,��쐼,5.2,��
2015/03/22,05:50,0.539,0.331,0.560,0.521,0.555,0.253,0.224,��쐼,5.0,��
2015/03/22,06:00,0.541,0.332,0.561,0.519,0.554,0.254,0.224,��쐼,6.2,��
2015/03/22,06:10,0.540,0.332,0.562,0.521,0.555,0.254,0.224,��쐼,6.3,��
2015/03/22,06:20,0.540,0.332,0.561,0.522,0.554,0.253,0.225,��쐼,6.5,��
2015/03/22,06:30,0.542,0.332,0.558,0.518,0.554,0.254,0.224,��쐼,5.9,��
2015/03/22,06:40,0.539,0.332,0.560,0.520,0.554,0.253,0.226,��쐼,5.7,��
2015/03/22,06:50,0.537,0.332,0.559,0.521,0.552,0.253,0.225,��쐼,5.5,��
2015/03/22,07:00,0.540,0.332,0.561,0.518,0.555,0.252,0.224,��,3.0,��
2015/03/22,07:10,0.539,0.331,0.562,0.518,0.555,0.253,0.225,��,3.9,��
2015/03/22,07:20,0.538,0.331,0.560,0.522,0.554,0.252,0.223,��쐼,4.7,��
2015/03/22,07:30,0.542,0.334,0.561,0.518,0.555,0.253,0.224,��,3.6,��
2015/03/22,07:40,0.540,0.332,0.563,0.521,0.555,0.253,0.223,��,3.0,��
2015/03/22,07:50,0.538,0.330,0.562,0.519,0.555,0.253,0.223,��,3.1,��
2015/03/22,08:00,0.541,0.333,0.558,0.519,0.555,0.252,0.224,��,3.1,��
2015/03/22,08:10,0.538,0.331,0.563,0.518,0.555,0.254,0.223,��쐼,3.2,��
2015/03/22,08:20,0.541,0.331,0.557,0.517,0.556,0.254,0.226,��쐼,3.6,��
2015/03/22,08:30,0.541,0.332,0.560,0.519,0.557,0.253,0.223,��쐼,2.8,��
2015/03/22,08:40,0.540,0.330,0.562,0.518,0.553,0.253,0.225,��쐼,3.0,��
2015/03/22,08:50,0.541,0.332,0.559,0.520,0.556,0.253,0.223,��쐼,2.5,��
2015/03/22,09:00,0.538,0.331,0.562,0.518,0.555,0.254,0.225,��,2.8,��
2015/03/22,09:10,0.540,0.333,0.560,0.520,0.559,0.254,0.223,��,3.7,��
2015/03/22,09:20,0.537,0.331,0.562,0.521,0.554,0.253,0.225,��,3.6,��
2015/03/22,09:30,0.540,0.331,0.559,0.520,0.558,0.252,0.225,��쓌,4.3,��
2015/03/22,09:40,0.535,0.331,0.559,0.520,0.551,0.253,0.225,��,4.2,��
2015/03/22,09:50,0.541,0.331,0.561,0.518,0.559,0.253,0.225,��쓌,6.1,��
2015/03/22,10:00,0.535,0.333,0.561,0.522,0.553,0.253,0.225,��쓌,5.8,��
2015/03/22,10:10,0.539,0.332,0.564,0.519,0.559,0.253,0.225,��,5.3,��
2015/03/22,10:20,0.541,0.331,0.561,0.521,0.551,0.253,0.225,��,5.9,��
2015/03/22,10:30,0.536,0.333,0.562,0.519,0.558,0.253,0.225,��쓌,6.2,��
2015/03/22,10:40,0.540,0.332,0.560,0.524,0.554,0.252,0.225,��,7.8,��
2015/03/22,10:50,0.537,0.333,0.560,0.519,0.558,0.252,0.224,��,7.1,��
2015/03/22,11:00,0.543,0.333,0.561,0.522,0.553,0.253,0.224,��,8.0,��
2015/03/22,11:10,0.536,0.332,0.561,0.519,0.558,0.253,0.225,��쓌,7.2,��
2015/03/22,11:20,0.539,0.332,0.557,0.522,0.556,0.253,0.225,��,7.2,��
2015/03/22,11:30,0.540,0.332,0.563,0.520,0.557,0.253,0.226,��,9.2,��
2015/03/22,11:40,0.538,0.332,0.556,0.523,0.559,0.255,0.225,��,9.3,��
2015/03/22,11:50,0.540,0.332,0.562,0.521,0.555,0.252,0.225,��,9.3,��
2015/03/22,12:00,0.537,0.333,0.559,0.522,0.559,0.253,0.225,��,9.8,��
2015/03/22,12:10,0.543,0.333,0.563,0.521,0.554,0.253,0.225,��,10.3,��
2015/03/22,12:20,0.538,0.333,0.559,0.520,0.560,0.253,0.224,��,10.2,��
2015/03/22,12:30,0.542,0.332,0.558,0.523,0.552,0.251,0.225,��,9.4,��
2015/03/22,12:40,0.538,0.333,0.564,0.520,0.561,0.254,0.225,��,9.0,��
2015/03/22,12:50,0.543,0.333,0.558,0.523,0.553,0.252,0.226,��쓌,8.5,��
2015/03/22,13:00,0.541,0.332,0.564,0.519,0.560,0.254,0.224,��,9.6,��
2015/03/22,13:10,0.540,0.331,0.560,0.524,0.554,0.253,0.226,��,9.3,��
2015/03/22,13:20,0.542,0.333,0.565,0.519,0.561,0.254,0.224,��,10.7,��
2015/03/22,13:30,0.541,0.332,0.563,0.526,0.557,0.253,0.226,��,8.5,��
2015/03/22,13:40,0.542,0.333,0.561,0.521,0.559,0.255,0.226,��,9.0,��
2015/03/22,13:50,0.541,0.333,0.566,0.526,0.556,0.254,0.224,��,9.2,��
2015/03/22,14:00,0.544,0.333,0.559,0.521,0.558,0.254,0.225,��,10.1,��
2015/03/22,14:10,0.540,0.333,0.564,0.525,0.560,0.254,0.224,��,9.7,��
2015/03/22,14:20,0.545,0.333,0.560,0.522,0.557,0.253,0.225,��,8.7,��
2015/03/22,14:30,0.538,0.332,0.564,0.525,0.560,0.255,0.225,��,7.7,��
2015/03/22,14:40,0.544,0.333,0.561,0.519,0.553,0.253,0.225,��,8.6,��
2015/03/22,14:50,0.538,0.333,0.562,0.524,0.561,0.254,0.226,��,8.9,��
2015/03/22,15:00,0.545,0.332,0.564,0.521,0.555,0.253,0.225,��,9.9,��
2015/03/22,15:10,0.539,0.334,0.563,0.523,0.563,0.254,0.226,��,8.4,��
2015/03/22,15:20,0.543,0.333,0.563,0.524,0.557,0.252,0.225,��,6.2,��
2015/03/22,15:30,0.540,0.333,0.566,0.523,0.562,0.254,0.226,��,6.6,��
2015/03/22,15:40,0.546,0.334,0.562,0.526,0.558,0.254,0.225,��,9.0,��
2015/03/22,15:50,0.541,0.335,0.567,0.524,0.561,0.254,0.225,��,9.5,��
2015/03/22,16:00,0.543,0.333,0.563,0.525,0.558,0.254,0.224,��,8.4,��
2015/03/22,16:10,0.542,0.332,0.565,0.524,0.557,0.253,0.224,��,8.9,��
2015/03/22,16:20,0.542,0.334,0.563,0.522,0.559,0.254,0.225,��,9.5,��
2015/03/22,16:30,0.543,0.333,0.563,0.525,0.556,0.254,0.225,��,8.4,��
2015/03/22,16:40,0.541,0.334,0.566,0.524,0.562,0.255,0.226,��,7.6,��
2015/03/22,16:50,0.544,0.335,0.562,0.527,0.556,0.254,0.226,��쐼,9.3,��
2015/03/22,17:00,0.539,0.332,0.566,0.524,0.558,0.253,0.225,��쐼,9.8,��
2015/03/22,17:10,0.544,0.336,0.561,0.523,0.557,0.255,0.225,��쐼,8.2,��
2015/03/22,17:20,0.540,0.333,0.566,0.525,0.559,0.253,0.225,��쐼,8.4,��
2015/03/22,17:30,0.544,0.334,0.564,0.522,0.558,0.254,0.225,��쐼,6.1,��
2015/03/22,17:40,0.542,0.332,0.564,0.526,0.556,0.254,0.226,��쐼,6.6,��
2015/03/22,17:50,0.543,0.334,0.565,0.521,0.558,0.253,0.225,��쐼,7.3,��
2015/03/22,18:00,0.544,0.333,0.562,0.523,0.556,0.254,0.226,��쐼,7.8,��
2015/03/22,18:10,0.541,0.334,0.566,0.525,0.561,0.253,0.225,��쐼,6.2,��
2015/03/22,18:20,0.545,0.334,0.563,0.523,0.557,0.254,0.225,��쐼,6.5,��
2015/03/22,18:30,0.541,0.332,0.564,0.524,0.556,0.254,0.226,��쐼,6.2,��
2015/03/22,18:40,0.544,0.334,0.565,0.522,0.559,0.254,0.226,��쐼,5.1,��
2015/03/22,18:50,0.544,0.335,0.563,0.525,0.554,0.254,0.225,��쐼,5.6,��
2015/03/22,19:00,0.541,0.331,0.567,0.525,0.556,0.253,0.226,��쐼,6.4,��
2015/03/22,19:10,0.545,0.335,0.563,0.521,0.556,0.254,0.225,�쐼,5.8,��
2015/03/22,19:20,0.540,0.332,0.567,0.527,0.554,0.253,0.225,��쐼,6.3,�L
2015/03/22,19:30,0.545,0.332,0.563,0.523,0.556,0.253,0.224,�쐼,9.0,��
2015/03/22,19:40,0.542,0.336,0.563,0.525,0.555,0.254,0.226,���쐼,8.2,�L
2015/03/22,19:50,0.544,0.333,0.565,0.525,0.557,0.254,0.226,���쐼,4.7,�L
2015/03/22,20:00,0.543,0.334,0.562,0.523,0.554,0.254,0.225,��,3.6,��
2015/03/22,20:10,0.541,0.333,0.566,0.523,0.558,0.252,0.226,��,1.9,��
2015/03/22,20:20,0.545,0.334,0.561,0.522,0.558,0.255,0.226,��,1.1,��
2015/03/22,20:30,0.540,0.336,0.565,0.527,0.555,0.254,0.226,��,3.9,��
2015/03/22,20:40,0.544,0.333,0.563,0.523,0.560,0.255,0.227,��,6.1,�L
2015/03/22,20:50,0.542,0.334,0.563,0.524,0.556,0.255,0.226,��,6.7,�L
2015/03/22,21:00,0.543,0.336,0.567,0.525,0.562,0.256,0.228,��,7.5,�L
2015/03/22,21:10,0.548,0.338,0.566,0.526,0.563,0.259,0.230,���쐼,9.2,�L
2015/03/22,21:20,0.546,0.341,0.571,0.531,0.562,0.263,0.234,��,9.9,�L
2015/03/22,21:30,0.554,0.343,0.574,0.532,0.567,0.265,0.237,��,10.8,�L
2015/03/22,21:40,0.555,0.345,0.573,0.531,0.566,0.267,0.237,��,7.6,�L
2015/03/22,21:50,0.554,0.343,0.573,0.536,0.566,0.266,0.236,���쐼,6.4,��
2015/03/22,22:00,0.553,0.342,0.570,0.530,0.564,0.263,0.235,���쐼,7.2,��
2015/03/22,22:10,0.550,0.341,0.569,0.527,0.563,0.260,0.234,���쐼,5.1,��
2015/03/22,22:20,0.548,0.342,0.570,0.529,0.561,0.261,0.231,�쐼,4.3,��
2015/03/22,22:30,0.547,0.338,0.567,0.527,0.562,0.258,0.230,�쐼,4.4,��
2015/03/22,22:40,0.544,0.337,0.563,0.525,0.558,0.257,0.230,���쐼,2.2,��
2015/03/22,22:50,0.547,0.338,0.567,0.524,0.556,0.257,0.228,�k�k��,2.8,��
2015/03/22,23:00,0.543,0.335,0.565,0.523,0.559,0.255,0.227,�k�k��,2.2,��
2015/03/22,23:10,0.543,0.335,0.563,0.522,0.557,0.255,0.226,�k�k��,1.7,��
2015/03/22,23:20,0.543,0.336,0.567,0.524,0.558,0.253,0.226,�k,5.2,��
2015/03/22,23:30,0.541,0.334,0.563,0.521,0.558,0.254,0.225,�k�k��,4.3,��
2015/03/22,23:40,0.543,0.334,0.561,0.523,0.555,0.253,0.225,�k,3.3,��
2015/03/22,23:50,0.542,0.334,0.564,0.522,0.556,0.254,0.224,�k,5.0,��
